Regional Weather Roundup
Issued by NWS

Home | Current Version | Previous Version | Text Only | Print | Product List | Glossary Off
Versions: 1 2 3 4 5 6 7 8 9 10 11 12 13 14 15 16 17 18 19 20 21 22 23 24 25 26 27 28 29 30 31 32 33 34 35 36 37 38 39 40 41 42 43 44 45 46 47 48 49 50

000
ASUS44 KMEG 040710
RWRTN
TENNESSEE HOURLY STATE WEATHER ROUNDUP
NATIONAL WEATHER SERVICE MEMPHIS TN
100 AM CST SUN DEC 04 2016

TNZ002-004-019-021-049-052-054-088>092-040800-
WEST TENNESSEE

CITY           SKY/WX    TMP DP  RH WIND       PRES   REMARKS
MEMPHIS INTL   LGT RAIN  42  41  96 E16       30.03F
NWS MEMPHIS      N/A     41 N/A N/A MISG        N/A
JACKSON        RAIN      40  32  73 E9        30.11F WCI  34
DYERSBURG      CLOUDY   N/A N/A N/A E8        30.09F
UNION CITY     MOCLDY    37  37 100 E5        30.11F WCI  34
PARIS          CLOUDY    36  36 100 E6        30.14F WCI  31
HUNTINGDON     MOCLDY    39  39 100 E8        30.12F FOG     WCI  34
LEXINGTON      CLOUDY    39  37  93 E6        30.12F WCI  35
$$

TNZ008-025-027-028-033-062-065-066-040800-
NORTH MIDDLE TENNESSEE

CITY           SKY/WX    TMP DP  RH WIND       PRES   REMARKS
NASHVILLE      LGT RAIN  40  37  89 E5        30.19F
PORTLAND       CLOUDY    39  37  93 CALM      30.19S
CLARKSVILLE    LGT RAIN  39  35  86 E8        30.18F WCI  33
SMYRNA         LGT RAIN  40  38  93 CALM      30.20F
CROSSVILLE     MIX PCPN  37  35  92 E3        30.18R FOG
$$

TNZ061-075-076-078-094-096-097-040800-
SOUTH MIDDLE TENNESSEE

CITY           SKY/WX    TMP DP  RH WIND       PRES   REMARKS
FAYETTEVILLE   CLOUDY    41  41 100 E6        30.13F FOG
TULLAHOMA      MOCLDY    39  37  93 E6        30.14F WCI  35
WINCHESTER     CLOUDY    39  39 100 SE8       30.15F WCI  34
MCMINNVILLE    CLOUDY    39  39 100 CALM      30.16F
COLUMBIA         N/A    N/A N/A N/A NE5       30.15S
SHELBYVILLE    CLOUDY    43  41  93 E5        30.16F
$$

TNZ017-018-042-046-047-040800-
NORTHEAST TENNESSEE

CITY           SKY/WX    TMP DP  RH WIND       PRES   REMARKS
TRI CITIES     CLOUDY    39  30  70 CALM      30.22S
ELIZABETHTON   CLOUDY    39  34  81 CALM      30.21F
$$

TNZ012-013-036-069-073-074-040800-
CENTRAL EAST TENNESSEE

CITY           SKY/WX    TMP DP  RH WIND       PRES   REMARKS
KNOXVILLE      LGT RAIN  40  37  89 NE6       30.20F
OAK RIDGE      LGT RAIN  41  37  86 VRB3      30.22F
DOWNTOWN KNOXV CLOUDY    41  39  93 CALM      30.22F FOG
GATLINBURG     CLOUDY    37  36  93 CALM      30.21F
MORRISTOWN     CLOUDY    39  34  81 SE3       30.20F
JACKSBORO      CLOUDY    39  39 100 CALM      30.24F FOG
$$

TNZ083-085-099-040800-
SOUTHEAST TENNESSEE

CITY           SKY/WX    TMP DP  RH WIND       PRES   REMARKS
CHATTANOOGA    LGT RAIN  41  39  93 N5        30.20F FOG
$$

SKY/WX REPORTED AS FAIR MEANS FEW OR NO CLOUDS BELOW
12 THOUSAND FEET.





USA.gov is the U.S. government's official web portal to all federal, state and local government web resources and services.